Location: Skalnate Pleso
(49.1889°N, 20.2450°E)
Time: 06:50:10
(UTC+01:00)

STARLINK-61 - Pass Details

Date: 19 November 2019
Orbit: 526 x 533 km, 53.0° (Epoch: 15 December)

Event Time Altitude Azimuth Distance (km) Brightness Sun altitude
Exits shadow 05:23:42 21° 251° (WSW) 1,212 4.9 -14.6°
Maximum altitude 05:26:17 82° 336° (NNW) 543 3.5 -14.2°
Drops below altitude 10° 05:30:21 10° 66° (ENE) 1,788 7.0 -13.6°
Sets 05:32:35 0° 67° (ENE) 2,681 8.0 -13.2°
